Location: Newark
(52.4787°S, 179.0532°W)
Time: 23:47:46
(UTC+00:00)

Vanguard 1 - Pass Details

Date: 20 November 2019
Orbit: 652 x 3831 km, 34.2° (Epoch: 05 December)

Event Time Altitude Azimuth Distance (km) Brightness Sun altitude
Rises 13:36:48 0° 279° (W) 6,335 13.8 -13.6°
Reaches altitude 10° 13:40:47 10° 285° (WNW) 5,690 13.5 -13.3°
Maximum altitude 13:57:43 42° 347° (NNW) 4,617 13.0 -12.0°
Drops below altitude 10° 14:18:16 10° 47° (NE) 6,798 14.3 -10.2°
Sets 14:23:40 0° 53° (NE) 7,619 14.6 -9.7°
